DW6561 Weather Reports


time (UTC)temp
C
wind
direction
speed
KPH
gust
KPH
rain 1hr
cm
rain 24hr
cm
rain mn
cm
humidity
%
barometer
mb
20260906164523 12 213 0.0 0.0 0.03 0.05 0.05 87 1015.5
20260906163021 12 213 0.0 0.0 0.05 0.05 0.05 86 1015.7
20260906161512 12 213 0.0 0.0 0.05 0.05 0.05 85 1015.6
20260906160014 12 213 0.0 1.6 0.05 0.05 0.05 85 1016.2
20260906154518 12 175 0.0 6.4 0.03 0.03 0.03 82 1016.7
20260906153015 12 161 1.6 11.3 0.00 0.00 0.00 79 1016.7
20260906151516 12 163 0.0 8.0 0.00 0.00 0.00 79 1016.8
20260906150038 12 121 0.0 3.2 0.00 0.00 0.00 79 1016.2
20260906144523 12 174 0.0 0.0 0.00 0.00 0.00 79 1015.5
20260906143003 12 174 0.0 0.0 0.00 0.00 0.00 78 1015.3
20260906141507 12 174 0.0 0.0 0.00 0.00 0.00 76 1015.5
20260906140012 12 221 0.0 0.0 0.00 0.00 0.00 76 1015.5
20260906134516 12 221 0.0 0.0 0.00 0.00 0.00 76 1015.2
20260906133014 12 221 0.0 0.0 0.00 0.00 0.00 76 1015.1
20260906131516 12 221 0.0 0.0 0.00 0.00 0.00 76 1015.1
20260906130006 12 221 0.0 0.0 0.00 0.00 0.00 75 1015.2
20260906124514 12 221 0.0 0.0 0.00 0.00 0.00 75 1015.3
20260906123020 12 221 0.0 0.0 0.00 0.00 0.00 75 1015.4
20260906121523 12 221 0.0 0.0 0.00 0.00 0.00 76 1015.5
20260906120007 12 221 0.0 0.0 0.00 0.00 0.00 77 1015.5
20260906114522 12 191 0.0 0.0 0.00 0.00 0.00 73 1015.5
20260906113011 12 191 0.0 0.0 0.00 0.00 0.00 72 1015.5
20260906111522 12 191 0.0 0.0 0.00 0.00 0.00 72 1015.7
20260906110038 12 191 0.0 0.0 0.00 0.00 0.00 71 1015.5
20260906104517 12 191 0.0 0.0 0.00 0.00 0.00 71 1015.7
20260906103018 12 191 0.0 0.0 0.00 0.00 0.00 71 1015.7
20260906101518 12 191 0.0 0.0 0.00 0.00 0.00 71 1015.7
20260906100015 12 183 0.0 0.0 0.00 0.00 0.00 70 1015.5
20260906094557 12 183 0.0 0.0 0.00 0.00 0.00 70 1015.5
20260906093018 12 183 0.0 0.0 0.00 0.00 0.00 70 1015.4
20260906091524 12 183 0.0 0.0 0.00 0.00 0.00 70 1015.4
20260906090029 13 183 0.0 0.0 0.00 0.00 0.00 70 1015.7
20260906084533 13 183 0.0 0.0 0.00 0.00 0.00 70 1015.8
20260906083021 13 183 0.0 0.0 0.00 0.00 0.00 70 1015.8
20260906081536 13 183 0.0 0.0 0.00 0.00 0.00 70 1016.0
20260906080012 13 183 0.0 0.0 0.00 0.00 0.00 69 1016.0
20260906074506 13 183 0.0 0.0 0.00 0.00 0.00 69 1016.0
20260906073007 14 183 0.0 3.2 0.00 0.00 0.00 68 1016.1
20260906071513 14 183 0.0 0.0 0.00 0.00 0.00 67 1016.4
20260906070022 15 183 0.0 0.0 0.00 0.00 0.00 65 1016.2
20260906064515 15 183 0.0 0.0 0.00 0.00 0.00 65 1016.3
20260906063008 15 183 0.0 0.0 0.00 0.00 0.00 65 1016.3
20260906061516 15 183 0.0 0.0 0.00 0.00 0.00 62 1016.4
20260906060008 16 183 0.0 0.0 0.00 0.00 0.00 61 1016.4
20260906054523 16 183 0.0 0.0 0.00 0.00 0.00 61 1016.5
20260906053028 16 183 0.0 0.0 0.00 0.00 0.00 60 1016.4
20260906051509 16 183 0.0 0.0 0.00 0.00 0.00 59 1016.4
20260906050020 17 183 0.0 0.0 0.00 0.00 0.00 59 1016.4
20260906044516 17 183 0.0 1.6 0.00 0.00 0.00 58 1016.5
20260906043012 17 183 0.0 0.0 0.00 0.00 0.00 58 1016.5
20260906041537 17 183 0.0 0.0 0.00 0.00 0.00 57 1016.5
20260906040015 17 183 0.0 0.0 0.00 0.00 0.00 56 1016.6
20260906034521 18 183 0.0 0.0 0.00 0.00 0.00 55 1016.5
20260906033027 18 183 0.0 3.2 0.00 0.00 0.00 53 1016.4
20260906031537 18 100 0.0 0.0 0.00 0.00 0.00 47 1016.3
20260906030017 19 100 0.0 0.0 0.00 0.00 0.00 48 1016.2
20260906024516 20 100 0.0 0.0 0.00 0.00 0.00 47 1016.2
20260906023024 20 100 0.0 0.0 0.00 0.00 0.00 48 1016.0
20260906021532 20 100 0.0 0.0 0.00 0.00 0.00 47 1015.9
20260906020040 21 100 0.0 0.0 0.00 0.00 0.00 46 1016.0
20260906014504 21 100 0.0 0.0 0.00 0.00 0.00 47 1015.9
20260906013003 21 100 0.0 0.0 0.00 0.00 0.00 46 1015.9
20260906011510 22 100 0.0 0.0 0.00 0.00 0.00 44 1016.0
20260906010008 22 100 0.0 1.6 0.00 0.00 0.00 42 1015.9
20260906004512 22 94 0.0 1.6 0.00 0.00 0.00 42 1016.1
20260906003003 22 158 0.0 0.0 0.00 0.00 0.00 43 1016.1
20260906001503 22 158 0.0 4.8 0.00 0.00 0.00 41 1016.2
20260906000004 23 139 0.0 3.2 0.00 0.00 0.00 43 1016.2
20260905234508 23 129 0.0 3.2 0.00 0.00 0.00 43 1016.2
20260905233018 23 135 0.0 1.6 0.00 0.00 0.00 44 1016.3
20260905231506 23 186 0.0 4.8 0.00 0.00 0.00 43 1016.2
20260905230003 23 80 0.0 0.0 0.00 0.00 0.00 40 1016.3
20260905224507 23 327 0.0 0.0 0.00 0.00 0.00 43 1016.4
20260905223025 23 138 0.0 0.0 0.00 0.00 0.00 43 1016.4
20260905221510 23 126 0.0 0.0 0.00 0.00 0.00 41 1016.4
20260905220005 23 122 0.0 0.0 0.00 0.00 0.00 44 1016.4
20260905214508 23 343 0.0 0.0 0.00 0.00 0.00 45 1016.7
20260905213012 23 323 0.0 0.0 0.00 0.00 0.00 44 1017.0
20260905211533 23 337 0.0 0.0 0.00 0.00 0.00 45 1017.1
20260905210011 23 302 0.0 0.0 0.00 0.00 0.00 44 1017.2
20260905204503 23 344 0.0 1.6 0.00 0.00 0.00 44 1017.2
20260905203010 23 168 0.0 0.0 0.00 0.00 0.00 45 1017.2
20260905201516 22 304 0.0 0.0 0.00 0.00 0.00 46 1017.3
20260905200030 22 279 0.0 3.2 0.00 0.00 0.00 48 1017.4
20260905194517 21 333 0.0 1.6 0.00 0.00 0.00 49 1017.6
20260905193008 20 215 0.0 0.0 0.00 0.00 0.00 51 1017.8
20260905191511 20 151 0.0 0.0 0.00 0.00 0.00 54 1017.8
20260905190024 20 322 0.0 0.0 0.00 0.00 0.00 56 1017.9
20260905184534 18 305 0.0 0.0 0.00 0.00 0.00 58 1018.0
20260905183028 18 308 0.0 0.0 0.00 0.00 0.00 56 1018.1
20260905181514 18 320 0.0 0.0 0.00 0.00 0.00 56 1018.3
20260905180016 18 320 0.0 0.0 0.00 0.00 0.00 60 1018.5
20260905174516 17 63 0.0 0.0 0.00 0.00 0.00 61 1018.6
20260905173029 17 330 0.0 0.0 0.00 0.00 0.00 63 1018.7
20260905171542 16 324 0.0 1.6 0.00 0.00 0.00 63 1018.5
20260905170017 16 324 0.0 0.0 0.00 0.00 0.00 64 1018.5